• In Belgium
  • List of Countries
  • For 7 days
  • Water Temperature
  • Satellite Maps
  • Weather Map
  • Weather Widgets
  • user-avatar
    Login

    Hourly Weather Hobart

    Today, 21 October, Saturday

    Time Temperature Precipitation Wind Pressure Humidity
    00:00 +7°C° 0 mm 5 mps 752 mmHg 80%
    01:00 +7°C° 0 mm 5 mps 752 mmHg 82%
    02:00 +7°C° 0 mm 5 mps 752 mmHg 82%
    03:00 +7°C° 0 mm 5 mps 751 mmHg 82%
    04:00 +8°C° 0 mm 5 mps 751 mmHg 83%
    05:00 +8°C° 0 mm 5 mps 751 mmHg 81%
    06:00 +9°C° 0 mm 5 mps 750 mmHg 79%
    07:00 +10°C° 0 mm 5 mps 750 mmHg 77%
    08:00 +12°C° 0 mm 5 mps 750 mmHg 73%
    09:00 +13°C° 0 mm 5 mps 750 mmHg 69%
    10:00 +14°C° 0 mm 5 mps 749 mmHg 65%
    11:00 +15°C° 0 mm 5 mps 749 mmHg 64%
    12:00 +15°C° 0 mm 5 mps 748 mmHg 63%
    13:00 +15°C° 0 mm 5 mps 748 mmHg 62%
    14:00 +15°C° 0 mm 5 mps 747 mmHg 65%
    15:00 +14°C° 0 mm 5 mps 747 mmHg 68%
    16:00 +13°C° 0 mm 5 mps 746 mmHg 71%
    17:00 +13°C° 0 mm 5 mps 746 mmHg 75%
    18:00 +12°C° 0 mm 4 mps 746 mmHg 79%
    19:00 +11°C° 0 mm 4 mps 745 mmHg 84%
    20:00 +11°C° 0.2 mm 4 mps 745 mmHg 86%
    21:00 +11°C° 0.2 mm 4 mps 745 mmHg 87%
    22:00 +10°C° 0.2 mm 4 mps 745 mmHg 89%
    23:00 +10°C° 0.3 mm 4 mps 745 mmHg 91%

    Tomorrow, 22 October, Sunday

    Time Temperature Precipitation Wind Pressure Humidity
    00:00 +10°C° 0.3 mm 4 mps 745 mmHg 92%
    01:00 +10°C° 0.3 mm 4 mps 745 mmHg 93%
    02:00 +10°C° 0 mm 4 mps 744 mmHg 94%
    03:00 +8°C° 0 mm 4 mps 744 mmHg 95%
    04:00 +8°C° 0 mm 4 mps 744 mmHg 96%
    05:00 +10°C° 0.1 mm 4 mps 744 mmHg 94%
    06:00 +10°C° 0.1 mm 4 mps 744 mmHg 92%
    07:00 +10°C° 0.1 mm 4 mps 745 mmHg 91%
    08:00 +11°C° 0.1 mm 4 mps 745 mmHg 86%
    09:00 +12°C° 0.1 mm 5 mps 745 mmHg 81%
    10:00 +13°C° 0.1 mm 5 mps 745 mmHg 76%
    11:00 +13°C° 0.1 mm 5 mps 745 mmHg 73%
    12:00 +13°C° 0.1 mm 5 mps 745 mmHg 70%
    13:00 +13°C° 0.1 mm 5 mps 745 mmHg 67%
    14:00 +13°C° 0 mm 5 mps 745 mmHg 65%
    15:00 +13°C° 0 mm 5 mps 745 mmHg 64%
    16:00 +13°C° 0 mm 5 mps 745 mmHg 63%
    17:00 +12°C° 0 mm 4 mps 745 mmHg 69%
    18:00 +11°C° 0 mm 3 mps 746 mmHg 75%
    19:00 +10°C° 0 mm 3 mps 746 mmHg 80%
    20:00 +9°C° 0 mm 3 mps 746 mmHg 83%
    21:00 +9°C° 0 mm 3 mps 746 mmHg 87%
    22:00 +8°C° 0 mm 3 mps 746 mmHg 90%
    23:00 +9°C° 0 mm 3 mps 746 mmHg 88%

    Day after tomorrow, 23 October, Monday

    Time Temperature Precipitation Wind Pressure Humidity
    00:00 +9°C° 0 mm 3 mps 746 mmHg 86%
    01:00 +10°C° 0 mm 3 mps 745 mmHg 84%
    02:00 +10°C° 0 mm 3 mps 745 mmHg 84%
    03:00 +10°C° 0 mm 3 mps 745 mmHg 85%
    04:00 +10°C° 0 mm 3 mps 745 mmHg 85%
    05:00 +11°C° 0 mm 3 mps 745 mmHg 85%
    06:00 +12°C° 0 mm 3 mps 745 mmHg 84%
    07:00 +12°C° 0 mm 3 mps 746 mmHg 84%
    08:00 +13°C° 0.2 mm 3 mps 746 mmHg 83%
    09:00 +14°C° 0.2 mm 3 mps 746 mmHg 81%
    10:00 +14°C° 0.2 mm 3 mps 746 mmHg 80%
    11:00 +14°C° 0.3 mm 3 mps 746 mmHg 80%
    12:00 +14°C° 0.3 mm 3 mps 746 mmHg 79%
    13:00 +14°C° 0.3 mm 3 mps 746 mmHg 79%
    14:00 +14°C° 0.1 mm 3 mps 746 mmHg 80%
    15:00 +14°C° 0.1 mm 3 mps 745 mmHg 80%
    16:00 +13°C° 0.1 mm 3 mps 745 mmHg 81%
    17:00 +13°C° 0 mm 2 mps 746 mmHg 84%
    18:00 +13°C° 0 mm 2 mps 746 mmHg 87%
    19:00 +12°C° 0 mm 2 mps 746 mmHg 90%
    20:00 +10°C° 0 mm 2 mps 747 mmHg 92%
    21:00 +9°C° 0 mm 2 mps 747 mmHg 94%
    22:00 +9°C° 0 mm 2 mps 747 mmHg 96%
    23:00 +8°C° 0 mm 2 mps 747 mmHg 96%

    24 October, Tuesday

    Time Temperature Precipitation Wind Pressure Humidity
    00:00 +8°C° 0 mm 2 mps 747 mmHg 97%
    01:00 +7°C° 0 mm 2 mps 747 mmHg 97%
    02:00 +7°C° 0 mm 2 mps 747 mmHg 97%
    03:00 +6°C° 0 mm 2 mps 747 mmHg 97%
    04:00 +6°C° 0 mm 2 mps 747 mmHg 98%
    05:00 +7°C° 0 mm 2 mps 747 mmHg 93%
    06:00 +8°C° 0 mm 2 mps 747 mmHg 89%
    07:00 +9°C° 0 mm 2 mps 748 mmHg 84%
    08:00 +12°C° 0 mm 2 mps 748 mmHg 73%
    09:00 +14°C° 0 mm 2 mps 748 mmHg 62%
    10:00 +15°C° 0 mm 2 mps 748 mmHg 51%
    11:00 +17°C° 0 mm 2 mps 748 mmHg 46%
    12:00 +18°C° 0 mm 3 mps 747 mmHg 40%
    13:00 +20°C° 0 mm 3 mps 747 mmHg 34%
    14:00 +19°C° 0 mm 3 mps 747 mmHg 37%
    15:00 +19°C° 0 mm 3 mps 747 mmHg 40%
    16:00 +18°C° 0 mm 4 mps 747 mmHg 43%
    17:00 +14°C° 0 mm 3 mps 747 mmHg 55%
    18:00 +12°C° 0 mm 3 mps 747 mmHg 67%
    19:00 +10°C° 0 mm 2 mps 747 mmHg 80%
    20:00 +9°C° 0 mm 2 mps 748 mmHg 84%
    21:00 +9°C° 0 mm 1 mps 748 mmHg 88%
    22:00 +9°C° 0 mm 1 mps 748 mmHg 92%
    23:00 +8°C° 0 mm 1 mps 748 mmHg 93%

    25 October, Wednesday

    Time Temperature Precipitation Wind Pressure Humidity
    00:00 +8°C° 0 mm 1 mps 748 mmHg 94%
    01:00 +8°C° 0 mm 1 mps 748 mmHg 94%
    02:00 +8°C° 0 mm 1 mps 747 mmHg 95%
    03:00 +7°C° 0 mm 1 mps 747 mmHg 96%
    04:00 +7°C° 0 mm 1 mps 747 mmHg 96%
    05:00 +8°C° 0 mm 1 mps 747 mmHg 91%
    06:00 +9°C° 0 mm 1 mps 747 mmHg 85%
    07:00 +10°C° 0 mm 1 mps 747 mmHg 80%
    08:00 +13°C° 0 mm 1 mps 747 mmHg 67%
    09:00 +18°C° 0 mm 1 mps 747 mmHg 54%
    10:00 +21°C° 0 mm 1 mps 747 mmHg 40%
    11:00 +21°C° 0 mm 1 mps 746 mmHg 39%
    12:00 +21°C° 0 mm 2 mps 746 mmHg 37%
    13:00 +21°C° 0 mm 3 mps 745 mmHg 35%
    14:00 +20°C° 0 mm 3 mps 745 mmHg 42%
    15:00 +19°C° 0 mm 3 mps 745 mmHg 48%
    16:00 +17°C° 0 mm 3 mps 745 mmHg 55%
    17:00 +16°C° 0 mm 3 mps 745 mmHg 64%
    18:00 +14°C° 0 mm 2 mps 745 mmHg 74%
    19:00 +12°C° 0 mm 2 mps 745 mmHg 84%
    20:00 +11°C° 0 mm 1 mps 746 mmHg 87%
    21:00 +10°C° 0 mm 1 mps 746 mmHg 91%
    22:00 +9°C° 0 mm 1 mps 746 mmHg 94%
    23:00 +9°C° 0 mm 1 mps 746 mmHg 95%

    26 October, Thursday

    Time Temperature Precipitation Wind Pressure Humidity
    00:00 +9°C° 0 mm 1 mps 745 mmHg 95%
    01:00 +9°C° 0 mm 1 mps 745 mmHg 96%
    02:00 +9°C° 0 mm 1 mps 745 mmHg 96%
    03:00 +9°C° 0 mm 1 mps 744 mmHg 96%
    04:00 +9°C° 0 mm 1 mps 744 mmHg 96%
    05:00 +10°C° 0 mm 1 mps 744 mmHg 91%
    06:00 +11°C° 0 mm 1 mps 744 mmHg 86%
    07:00 +12°C° 0 mm 1 mps 744 mmHg 80%
    08:00 +15°C° 0 mm 1 mps 744 mmHg 68%
    09:00 +19°C° 0 mm 1 mps 744 mmHg 55%
    10:00 +23°C° 0 mm 1 mps 744 mmHg 42%
    11:00 +22°C° 0 mm 1 mps 743 mmHg 42%
    12:00 +21°C° 0 mm 2 mps 743 mmHg 42%
    13:00 +21°C° 0 mm 2 mps 743 mmHg 42%
    14:00 +20°C° 0.1 mm 3 mps 743 mmHg 48%
    15:00 +19°C° 0.1 mm 3 mps 743 mmHg 53%
    16:00 +18°C° 0.1 mm 3 mps 743 mmHg 59%
    17:00 +16°C° 0.1 mm 2 mps 743 mmHg 69%
    18:00 +15°C° 0.1 mm 2 mps 743 mmHg 78%
    19:00 +13°C° 0.1 mm 1 mps 744 mmHg 88%
    20:00 +12°C° 0 mm 1 mps 744 mmHg 90%
    21:00 +11°C° 0 mm 1 mps 744 mmHg 92%
    22:00 +10°C° 0 mm 0 mps 745 mmHg 94%
    23:00 +9°C° 0 mm 0 mps 744 mmHg 95%
    Show more